DELTA 1 DEB, 42085

Orbit data source: Space-Track

DELTA 1 DEB, 42085 is space debris in SSO originally from a launch on Sun, 15 Dec 1968 UTC launched from the Air Force Western Test Range (AFWTR). Debris objects in space refer to the collection of defunct objects orbiting the Earth. Examples of debris include non-operational satellites, rocket bodies, and fragments generated from explosions, collisions, or faulty payload assembly.

Loading next visibility...
DELTA 1 DEB details
Identifier
42085, 1968-114M
Orbit
SSO
Last TLE update8 hours ago
Origin
Flag of USGSFC (US)
ManufacturerAerojet
MissionSpacecraft
Bus & MotorUnknown
MassUnknown
Launch date (UTC)
1968-12-15 (56 years ago)
Launch vehicleUnknown
Launch site
Air Force Western Test Range (AFWTR)
Object type
Payload
Rocket body
Debris
Shape & HBRUnknown
Radar Cross SectionSmall (<0.1 m²)

Expand to show TLE details & history

TLE from 8 hours ago
0 DELTA 1 DEB
1 42085U 68114M   24361.47598017  .00000634  00000-0  27433-2 0  9990
2 42085 100.9402  65.2104 0108611  61.2099 311.4501 12.84122372520126
Epoch: 2024-12-26T11:25Z
Definitive object data (Epoch: 2024-12-26T11:25:24.686Z)
Latitude11.46137°
Longitude156.16795°
Altitude1,271.963 km
Speed7.246 km/s
True Right ascension04h 11m 54s
True Declination11° 23' 57"
Sunlit
Object was in full shadow at TLE epoch
Visualization TLE readout
Latitude2.17937°
Longitude-20.83921°
Altitude1,364.868 km
Speed7.159 km/s
Apparent Right ascension13h 49m 51s
Apparent Declination-36° 11' 10"
Sunlit
Object is in daylight
Visualization observer readout
Local Sidereal Time19:07:58
Azimuth235.427° WSW
Elevation-15.446°
Doppler factor1
Orbital elements
Apogee altitude1,406.031 km
Perigee altitude1,238.759 km
Semi-major axis7,700.532 km
Eccentricity0.0108611
Inclination100.9402°
RAAN65.2104°
Arg. of periapsis61.2099°
True anomaly310.50882°
Mean anomaly311.4501°
Eccentric anomaly310.98031°
Mean motion3.2119 °/min
BSTAR0.0027433
Orbital period112.08 mins
Loading maneuver chart data...
Loading historical data...
Loading historical data...
Loading historical data...
Loading historical data...
Loading historical data...
Loading historical data...
Loading historical data...

DELTA 1 DEB Visibility forecast

Observer location: undefined°, undefined

Span
Click to sort rows by Start time (UTC) header in descending order
Start Az.
Max El. time (UTC)
Max El. Az.
Max El.
End time (UTC)
End Az.
9 mins2024-12-27 02:30:15.198Z92.659° ESE2024-12-27 02:34:15.198Z58.159° ENE17.672°2024-12-27 02:39:15.198Z14.147° NNE
13 mins2024-12-27 04:18:15.198Z162.839° S2024-12-27 04:24:15.198Z323.403° NNW44.858°2024-12-27 04:31:15.198Z343.404° N
5 mins2024-12-27 06:13:15.198Z252.92° W2024-12-27 06:15:15.198Z270.65° WNW13.953°2024-12-27 06:18:15.198Z296.3° NW
10 mins2024-12-27 16:04:15.198Z54.399° ENE2024-12-27 16:08:15.198Z93.332° ESE22.106°2024-12-27 16:14:15.198Z145.016° SSE
13 mins2024-12-27 17:53:15.198Z8.315° NNE2024-12-27 17:59:15.198Z282.389° WNW42.508°2024-12-27 18:06:15.198Z211.59° SW
|